Powrót do katalogu

FENGYUN 1C DEB

AktywnyPO
NORAD 32361·DEBRIS·🇨🇳 China

Wystrzelony May 10, 1999 z Taiyuan Satellite Launch Center

Loading…

Następne Przeloty (najbliższe 24 godziny)

TLE

Starzejące sięSource: Space-Track

Epoka: Sep 11, 2026, 03:59 UTC

1 32361U 99025CZE 26254.16599691  .00003767  00000-0  88122-3 0  9992
2 32361  98.8432 333.1502 0041795 297.8633  61.8331 14.54750361  2990

Śledź FENGYUN 1C DEB w czasie rzeczywistym z AllMySat

Download on the App Store